Home   Weather   Podgorica   Past weeks
Flag for Montenegro

Past Weather in Podgorica, Montenegro — Yesterday and Last 2 Weeks

Now
84 °F

Passing clouds.


Feels Like: 83 °F
Forecast: 83 / 67 °F
Wind: 2 mph from North

Location: Podgorica Titograd

Current Time: Jun 17, 2019 at 9:07:49 pm

Latest Report: Jun 17, 2019 at 8:30 pm


Visibility: N/A

Pressure: 29.89 "Hg

Humidity: 35%

Dew Point: 54 °F

Location of PodgoricaLocation

Past Weather in Podgorica — Graph

°F

Podgorica Temperature Yesterday

Maximum temperature yesterday: 93 °F (at 2:00 pm)
Minimum temperature yesterday: 72 °F (at 5:30 am)
Average temperature yesterday: 81 °F

High & Low Weather Summary for the Past Weeks

 TemperatureHumidityPressure
High97 °F (Jun 15, 3:30 pm)100% (Jun 2, 11:00 pm)30.12 "Hg (Jun 2, 11:00 pm)
Low61 °F (Jun 2, 11:00 pm)26% (Jun 13, 5:30 pm)29.80 "Hg (Jun 11, 1:30 pm)
Average76 °F62%29.95 "Hg
* Reported Jun 2 8:00 pm — Jun 17 8:00 pm, Podgorica. Weather by CustomWeather, © 2019

Note: Actual official high and low records may vary slightly from our data, if they occured in-between our weather recording intervals... More about our weather records

Advertising

Podgorica Weather History for the Previous 24 Hours

Scroll right to see more
 ConditionsComfort  
Time TempWeatherWind HumidityBarometerVisibility
8:00 pm
Mon, Jun 17
84 °FPartly sunny.9 mph35%29.89 "HgN/A
7:30 pm88 °FScattered clouds.13 mph31%29.86 "HgN/A
7:00 pm88 °FPassing clouds.15 mph29%29.86 "HgN/A
6:30 pm90 °FPassing clouds.13 mph31%29.86 "HgN/A
6:00 pm90 °FPassing clouds.13 mph31%29.86 "HgN/A
5:30 pm90 °FPassing clouds.12 mph33%29.86 "HgN/A
5:00 pm91 °FPassing clouds.9 mph30%29.83 "HgN/A
4:30 pm93 °FPassing clouds.5 mph28%29.86 "HgN/A
4:00 pm91 °FPassing clouds.5 mph32%29.83 "HgN/A
3:30 pm91 °FPassing clouds.3 mph34%29.86 "HgN/A
3:00 pm91 °FPassing clouds.3 mph34%29.86 "HgN/A
2:30 pm91 °FPassing clouds.3 mph34%29.86 "HgN/A
2:00 pm90 °FPassing clouds.6 mph38%29.86 "HgN/A
1:30 pm90 °FPassing clouds.6 mph41%29.89 "HgN/A
1:00 pm88 °FPassing clouds.5 mph46%29.89 "HgN/A
12:30 pm88 °FPassing clouds.6 mph46%29.89 "HgN/A
12:00 pm88 °FPassing clouds.5 mph43%29.89 "HgN/A
11:30 am88 °FPassing clouds.6 mph43%29.89 "HgN/A
11:00 am88 °FSunny.3 mph35%29.89 "Hg10 mi
10:30 am86 °FSunny.3 mph38%29.89 "Hg10 mi
10:00 am84 °FPassing clouds.5 mph43%29.92 "HgN/A
9:30 am84 °FPassing clouds.3 mph40%29.92 "HgN/A
9:00 am82 °FSunny.2 mph45%29.92 "Hg10 mi
8:30 am81 °FSunny.1 mph48%29.92 "Hg10 mi
8:00 am77 °FSunny.1 mph54%29.92 "Hg10 mi
7:30 am77 °FSunny.2 mph51%29.89 "Hg10 mi
7:00 am77 °FSunny.1 mph47%29.89 "Hg10 mi
6:30 am73 °FPassing clouds.5 mph53%29.89 "HgN/A
6:00 am72 °FSunny.1 mph53%29.89 "Hg10 mi
5:30 am73 °FSunny.3 mph50%29.86 "Hg10 mi
5:00 am72 °FClear.2 mph50%29.86 "Hg10 mi
4:30 am68 °FClear.1 mph60%29.86 "Hg10 mi
4:00 am70 °FClear.2 mph57%29.86 "Hg10 mi
3:30 am72 °FClear.2 mph53%29.86 "Hg10 mi
3:00 am72 °FClear.7 mph53%29.86 "Hg10 mi
2:30 am72 °FClear.8 mph53%29.89 "Hg10 mi
1:30 am72 °FPassing clouds.6 mph57%29.89 "HgN/A
1:00 am72 °FClear.8 mph57%29.89 "Hg10 mi
12:30 am73 °FPassing clouds.7 mph53%29.89 "HgN/A
12:00 am73 °FClear.8 mph57%29.89 "Hg10 mi
11:30 pm
Sun, Jun 16
73 °FPassing clouds.7 mph61%29.89 "HgN/A
11:00 pm73 °FClear.7 mph61%29.89 "Hg10 mi
10:30 pm73 °FPassing clouds.7 mph65%29.89 "HgN/A
10:00 pm75 °FPassing clouds.3 mph61%29.86 "HgN/A
9:30 pm75 °FPassing clouds.No wind61%29.86 "HgN/A
9:00 pm75 °FPassing clouds.6 mph57%29.83 "HgN/A
Weather by CustomWeather, © 2019

See weather overview